Tracking 30166 objects as of 22-Jan-2025
HD Live streaming from Space Station
objects crossing your sky now

STARLINK-2251

Track STARLINK-2251 now!
10-day predictions
STARLINK-2251 is classified as:


NORAD ID: 48594
Int'l Code: 2021-041AT
Perigee: 553.4 km
Apogee: 555.2 km
Inclination: 53.1 °
Period: 95.6 minutes
Semi major axis: 6925 km
RCS: Unknown
Launch date: May 15, 2021
Source: United States (US)
Launch site: AIR FORCE EASTERN TEST RANGE (AFETR)
Your satellite tracking list
Your tracking list is empty




NASA's NSSDC Master Catalog

Two Line Element Set (TLE):
1 48594U 21041AT  25022.52875442  .00007187  00000-0  50055-3 0  9997
2 48594  53.0544 157.4751 0001301  78.7357 281.3778 15.06424703203514
Source of the keplerian elements: AFSPC